User: anonymous   Login
Location: Allison's Woods
(35.8809°N, 80.8140°W)
Time: 09:33:52
(UTC-04:00)
Language:

Iridium 39 - Orbit

View from above orbital plane
View from above orbital plane
View from above satellite
View from above satellite

Ground track
Ground track

The orbit data is extracted from the following two-line orbital elements,

1 25042U 97069D   16272.66901490  .00000212  00000-0  53593-4 0  9991
2 25042  86.3916 130.8094 0021040 101.0675 259.2895 14.46088594988925
Epoch (UTC): 28 September 2016 16:03:22
Eccentricity: 0.0021040
inclination: 86.3916°
perigee height: 723 km
apogee height: 753 km
right ascension of ascending node: 130.8094°
argument of perigee: 101.0675°
revolutions per day: 14.46088594
mean anomaly at epoch: 259.2895°
orbit number at epoch: 98892

The dashed part of the orbit path shows where the satellite is in the earth's shadow,  

DLR